When you browse on this site, cookies collect data to enhance your experience and personalize the content and advertising you see.
Visit our Privacy Policy to learn more. By continuing to use the site, you agree to this use of cookies and data.
  • In Hungary
  • List of Countries
  • For 7 days
  • Water Temperature
  • Weather Map
  • News
  • Weather Widgets
  • user-avatar
    Login

    Hourly Weather Amor

    Today, 15 December, Sunday

    Time Temperature Precipitation Wind Pressure Humidity
    00:00 +12°C° 0 mm 4 mps 755 mmHg 88%
    01:00 +12°C° 0 mm 4 mps 755 mmHg 87%
    02:00 +12°C° 0 mm 5 mps 754 mmHg 87%
    03:00 +12°C° 0.1 mm 5 mps 754 mmHg 88%
    04:00 +12°C° 0.1 mm 5 mps 753 mmHg 90%
    05:00 +12°C° 0.1 mm 5 mps 753 mmHg 91%
    06:00 +12°C° 0.1 mm 5 mps 753 mmHg 90%
    07:00 +13°C° 0.1 mm 5 mps 752 mmHg 90%
    08:00 +13°C° 0.1 mm 5 mps 752 mmHg 90%
    09:00 +14°C° 0.1 mm 5 mps 752 mmHg 84%
    10:00 +15°C° 0.1 mm 6 mps 751 mmHg 79%
    11:00 +16°C° 0.1 mm 6 mps 751 mmHg 73%
    12:00 +16°C° 0.2 mm 6 mps 750 mmHg 75%
    13:00 +16°C° 0.2 mm 6 mps 750 mmHg 76%
    14:00 +16°C° 0.2 mm 6 mps 749 mmHg 77%
    15:00 +15°C° 0.6 mm 6 mps 748 mmHg 82%
    16:00 +14°C° 0.6 mm 6 mps 748 mmHg 86%
    17:00 +13°C° 0.6 mm 6 mps 747 mmHg 91%
    18:00 +13°C° 1.5 mm 5 mps 747 mmHg 92%
    19:00 +13°C° 1.5 mm 5 mps 747 mmHg 93%
    20:00 +13°C° 1.5 mm 4 mps 746 mmHg 95%
    21:00 +12°C° 2.6 mm 3 mps 746 mmHg 95%
    22:00 +13°C° 2.6 mm 2 mps 745 mmHg 96%
    23:00 +12°C° 2.6 mm 1 mps 745 mmHg 96%

    Tomorrow, 16 December, Monday

    Time Temperature Precipitation Wind Pressure Humidity
    00:00 +12°C° 0.7 mm 1 mps 744 mmHg 96%
    01:00 +12°C° 0.7 mm 1 mps 744 mmHg 95%
    02:00 +12°C° 0.7 mm 1 mps 743 mmHg 95%
    03:00 +12°C° 1.3 mm 1 mps 742 mmHg 95%
    04:00 +12°C° 1.3 mm 2 mps 742 mmHg 96%
    05:00 +10°C° 1.3 mm 2 mps 741 mmHg 97%
    06:00 +10°C° 1.2 mm 3 mps 741 mmHg 96%
    07:00 +10°C° 1.2 mm 4 mps 740 mmHg 96%
    08:00 +9°C° 1.2 mm 5 mps 740 mmHg 95%
    09:00 +9°C° 0.8 mm 5 mps 740 mmHg 94%
    10:00 +9°C° 0.8 mm 6 mps 740 mmHg 93%
    11:00 +9°C° 0.8 mm 6 mps 740 mmHg 92%
    12:00 +9°C° 0.5 mm 6 mps 739 mmHg 91%
    13:00 +8°C° 0.5 mm 7 mps 739 mmHg 90%
    14:00 +8°C° 0.5 mm 7 mps 739 mmHg 90%
    15:00 +8°C° 0.5 mm 7 mps 739 mmHg 89%
    16:00 +8°C° 0.5 mm 7 mps 739 mmHg 88%
    17:00 +7°C° 0.5 mm 8 mps 740 mmHg 87%
    18:00 +7°C° 0.1 mm 8 mps 740 mmHg 86%
    19:00 +7°C° 0.1 mm 8 mps 741 mmHg 85%
    20:00 +7°C° 0.1 mm 8 mps 742 mmHg 84%
    21:00 +6°C° 0 mm 7 mps 742 mmHg 84%
    22:00 +6°C° 0 mm 7 mps 742 mmHg 83%
    23:00 +7°C° 0 mm 6 mps 743 mmHg 83%

    Day after tomorrow, 17 December, Tuesday

    Time Temperature Precipitation Wind Pressure Humidity
    00:00 +5°C° 0.1 mm 6 mps 743 mmHg 84%
    01:00 +6°C° 0.1 mm 5 mps 744 mmHg 85%
    02:00 +6°C° 0.1 mm 5 mps 744 mmHg 87%
    03:00 +6°C° 0.1 mm 5 mps 745 mmHg 86%
    04:00 +5°C° 0.1 mm 5 mps 745 mmHg 86%
    05:00 +5°C° 0.1 mm 5 mps 745 mmHg 86%
    06:00 +6°C° 0 mm 4 mps 746 mmHg 85%
    07:00 +6°C° 0 mm 4 mps 747 mmHg 85%
    08:00 +6°C° 0 mm 4 mps 748 mmHg 84%
    09:00 +8°C° 0 mm 4 mps 748 mmHg 78%
    10:00 +10°C° 0 mm 4 mps 748 mmHg 71%
    11:00 +11°C° 0 mm 4 mps 749 mmHg 64%
    12:00 +11°C° 0 mm 3 mps 749 mmHg 61%
    13:00 +11°C° 0 mm 3 mps 749 mmHg 59%
    14:00 +12°C° 0 mm 3 mps 749 mmHg 56%
    15:00 +10°C° 0 mm 2 mps 750 mmHg 61%
    16:00 +9°C° 0 mm 2 mps 750 mmHg 66%
    17:00 +7°C° 0 mm 2 mps 751 mmHg 72%
    18:00 +8°C° 0 mm 2 mps 751 mmHg 72%
    19:00 +8°C° 0 mm 3 mps 751 mmHg 72%
    20:00 +8°C° 0 mm 3 mps 751 mmHg 72%
    21:00 +7°C° 0 mm 4 mps 751 mmHg 73%
    22:00 +7°C° 0 mm 5 mps 751 mmHg 73%
    23:00 +8°C° 0 mm 6 mps 751 mmHg 74%

    18 December, Wednesday

    Time Temperature Precipitation Wind Pressure Humidity
    00:00 +8°C° 0.1 mm 6 mps 750 mmHg 78%
    01:00 +8°C° 0.1 mm 6 mps 750 mmHg 82%
    02:00 +8°C° 0.1 mm 6 mps 750 mmHg 85%
    03:00 +8°C° 0.2 mm 6 mps 750 mmHg 87%
    04:00 +8°C° 0.2 mm 6 mps 749 mmHg 90%
    05:00 +8°C° 0.2 mm 6 mps 749 mmHg 92%
    06:00 +9°C° 0.8 mm 6 mps 749 mmHg 93%
    07:00 +10°C° 0.8 mm 7 mps 749 mmHg 94%
    08:00 +10°C° 0.8 mm 7 mps 748 mmHg 96%
    09:00 +12°C° 0.6 mm 7 mps 748 mmHg 94%
    10:00 +13°C° 0.6 mm 8 mps 748 mmHg 92%
    11:00 +15°C° 0.6 mm 9 mps 747 mmHg 90%
    12:00 +15°C° 1.4 mm 9 mps 747 mmHg 90%
    13:00 +14°C° 1.4 mm 10 mps 746 mmHg 91%
    14:00 +14°C° 1.4 mm 11 mps 745 mmHg 91%
    15:00 +14°C° 3.4 mm 10 mps 745 mmHg 92%
    16:00 +15°C° 3.4 mm 9 mps 745 mmHg 92%
    17:00 +15°C° 3.4 mm 9 mps 745 mmHg 92%
    18:00 +14°C° 0.4 mm 7 mps 745 mmHg 91%
    19:00 +13°C° 0.4 mm 6 mps 746 mmHg 91%
    20:00 +12°C° 0.4 mm 5 mps 746 mmHg 91%
    21:00 +11°C° 1.8 mm 6 mps 746 mmHg 90%
    22:00 +11°C° 1.8 mm 7 mps 746 mmHg 89%
    23:00 +11°C° 1.8 mm 7 mps 747 mmHg 87%

    19 December, Thursday

    Time Temperature Precipitation Wind Pressure Humidity
    00:00 +10°C° 0.5 mm 7 mps 747 mmHg 87%
    01:00 +10°C° 0.5 mm 8 mps 747 mmHg 87%
    02:00 +10°C° 0.5 mm 8 mps 747 mmHg 86%
    03:00 +10°C° 0.5 mm 8 mps 747 mmHg 86%
    04:00 +10°C° 0.5 mm 8 mps 747 mmHg 85%
    05:00 +10°C° 0.5 mm 8 mps 747 mmHg 85%
    06:00 +10°C° 0.5 mm 8 mps 747 mmHg 85%
    07:00 +10°C° 0.5 mm 7 mps 748 mmHg 86%
    08:00 +10°C° 0.5 mm 7 mps 748 mmHg 87%
    09:00 +11°C° 0.2 mm 7 mps 748 mmHg 85%
    10:00 +12°C° 0.2 mm 7 mps 748 mmHg 84%
    11:00 +14°C° 0.2 mm 7 mps 748 mmHg 82%
    12:00 +12°C° 2.7 mm 8 mps 746 mmHg 86%
    13:00 +12°C° 2.7 mm 9 mps 744 mmHg 90%
    14:00 +12°C° 2.7 mm 10 mps 743 mmHg 94%
    15:00 +13°C° 3 mm 12 mps 742 mmHg 92%
    16:00 +14°C° 3 mm 13 mps 740 mmHg 90%
    17:00 +15°C° 3 mm 15 mps 739 mmHg 88%
    18:00 +15°C° 1.6 mm 15 mps 739 mmHg 89%
    19:00 +15°C° 1.6 mm 16 mps 739 mmHg 89%
    20:00 +15°C° 1.6 mm 17 mps 738 mmHg 89%
    21:00 +15°C° 3.7 mm 16 mps 738 mmHg 88%
    22:00 +15°C° 3.7 mm 15 mps 738 mmHg 87%
    23:00 +15°C° 3.7 mm 14 mps 738 mmHg 86%

    20 December, Friday

    Time Temperature Precipitation Wind Pressure Humidity
    00:00 +14°C° 0.4 mm 13 mps 739 mmHg 86%
    01:00 +13°C° 0.4 mm 12 mps 740 mmHg 85%
    02:00 +12°C° 0.4 mm 11 mps 741 mmHg 85%
    03:00 +11°C° 0.5 mm 10 mps 742 mmHg 84%
    04:00 +11°C° 0.5 mm 10 mps 744 mmHg 83%
    05:00 +11°C° 0.5 mm 9 mps 745 mmHg 81%
    06:00 +10°C° 0.1 mm 8 mps 746 mmHg 82%
    07:00 +10°C° 0.1 mm 7 mps 747 mmHg 82%
    08:00 +10°C° 0.1 mm 6 mps 748 mmHg 83%
    09:00 +11°C° 0 mm 6 mps 748 mmHg 79%
    10:00 +13°C° 0 mm 6 mps 749 mmHg 76%
    11:00 +13°C° 0 mm 6 mps 749 mmHg 72%
    12:00 +13°C° 0 mm 5 mps 749 mmHg 73%
    13:00 +13°C° 0 mm 5 mps 749 mmHg 73%
    14:00 +13°C° 0 mm 4 mps 749 mmHg 74%
    15:00 +12°C° 0.5 mm 4 mps 749 mmHg 80%
    16:00 +11°C° 0.5 mm 4 mps 748 mmHg 86%
    17:00 +11°C° 0.5 mm 4 mps 748 mmHg 93%
    18:00 +10°C° 0.8 mm 5 mps 748 mmHg 94%
    19:00 +11°C° 0.8 mm 6 mps 747 mmHg 95%
    20:00 +12°C° 0.8 mm 7 mps 747 mmHg 97%
    21:00 +13°C° 1.3 mm 8 mps 747 mmHg 96%
    22:00 +15°C° 1.3 mm 9 mps 746 mmHg 96%
    23:00 +16°C° 1.3 mm 11 mps 746 mmHg 95%
    Show more